User: anonymous
Location: Caltech
(34.1382°N, 118.1253°W)
Time: 18:57:19
(UTC-07:00)
Language:

Cosmos 1833 Rocket - Orbit

View from above orbital plane
View from above orbital plane
View from above satellite
View from above satellite

Ground track
Ground track

The orbit data is extracted from the following two-line orbital elements,

1 17590U 87027B   14233.33621950  .00000039  00000-0  43370-4 0  7539
2 17590 071.0047 160.5581 0003139 058.1227 302.0201 14.16647285418128
Epoch (UTC): 21 August 2014 08:04:09
Eccentricity: 0.0003139
inclination: 71.0047°
perigee height: 834 km
apogee height: 839 km
right ascension of ascending node: 160.5581°
argument of perigee: 58.1227°
revolutions per day: 14.16647285
mean anomaly at epoch: 302.0201°
orbit number at epoch: 41812

The dashed part of the orbit path shows where the satellite is in the earth's shadow,  

DLR